Weather Roundup
Issued by NWS

Home | Current Version | Previous Version | Text Only | Print | Product List | Glossary On
Versions: 1 2 3 4 5 6 7 8 9 10 11 12 13 14 15 16 17 18 19 20 21 22 23 24 25 26 27 28 29 30 31 32 33 34 35 36 37 38 39 40 41 42 43 44 45 46 47 48 49 50
000
CXUS53 KTOP 202110
HRRKS

...ACROSS KANSAS...

400 PM CDT SUN JUN 20 2021
WESTERN KANSAS

CITY           SKY/WX    TMP DP  RH WIND       PRES   REMARKS
GOODLAND       SUNNY     83  50  31 NE21G31   29.85R HX  81
HILL CITY      SUNNY     89  60  37 N23G31    29.75R HX  89
DODGE CITY     SUNNY     99  58  25 N12G24    29.71R HX  98
GARDEN CITY    SUNNY     90  61  37 N22G28    29.75S HX  90
LIBERAL        SUNNY    100  57  23 NE14G22   29.73R HX  99
ELKHART        SUNNY     99  53  21 NE20      29.80S HX  97
HAYS           SUNNY     87  66  49 N17       29.70R HX  89
RUSSELL        SUNNY     91  66  43 N10G22    29.66R HX  93
MEDICINE LDG     N/A    104  54  19 MISG      29.60S HX 102

CENTRAL KANSAS

CITY           SKY/WX    TMP DP  RH WIND       PRES   REMARKS
GREAT BEND     SUNNY     96  66  37 NW15G22   29.65S HX  99
CONCORDIA      SUNNY     94  64  37 N15G23    29.64R HX  95
SALINA         SUNNY     99  65  32 NW13G20   29.60R HX 102
HUTCHISON      SUNNY    104  57  21 W9        29.59F HX 103
NEWTON         SUNNY    100  63  29 SW15      29.61S HX 102
WICHITA        MOSUNNY  101  65  30 SW15G30   29.58F HX 104
WINFIELD       SUNNY    100  64  30 SW22G38   29.62F HX 102

EASTERN KANSAS

CITY           SKY/WX    TMP DP  RH WIND       PRES   REMARKS
MARYSVILLE     MOSUNNY   91  66  43 NW12      29.61S HX  94
MANHATTAN      SUNNY     98  64  32 VRB6      29.57S HX 100
TOPEKA         SUNNY     97  67  37 SW7G23    29.57S HX 101
FORBES         SUNNY     96  68  39 SW10      29.59R HX 101
OLATHE IND     SUNNY     97  65  34 SW18G29   29.59F HX  99
LAWRENCE       SUNNY     96  68  39 SW15G21   29.58S HX 101
OTTAWA         NOT AVBL
EMPORIA        SUNNY     98  64  32 W14G23    29.60S HX 100
IOLA             N/A     94  67  40 SW21G28   29.63F HX  98
CHANUTE        SUNNY     97  69  40 S21G30    29.62F HX 103

...ADJACENT STATES...


CITY           SKY/WX    TMP DP  RH WIND       PRES   REMARKS
KCI AIRPORT    MOSUNNY   93  69  45 SW9G20    29.59S HX  98
ST JOSEPH      MOSUNNY   93  71  48 SW12      29.58S HX 100
FALLS CITY     MOSUNNY   90  73  57 NW7       29.58S HX  98
BEATRICE       SUNNY     88  66  48 N13G18    29.64R HX  91
OMAHA          PTSUNNY   88  67  49 NW15      29.60R HX  91
LINCOLN        MOSUNNY   91  64  40 N17G24    29.63R HX  92
GRAND ISLAND   SUNNY     88  51  28 N24G35    29.74R HX  85
NORTH PLATTE   MOSUNNY   83  53  35 N23G32    29.84R HX  82
SCOTTSBLUFF    SUNNY     84  43  23 N20G30    29.94R HX  81
CHEYENNE       MOSUNNY   71  46  40 NE14G22   30.04R


CITY           SKY/WX    TMP DP  RH WIND       PRES   REMARKS
DENVER         MOSUNNY   81  51  35 E8G18     29.95S HX  80
COLO SPRINGS   PTSUNNY   85  44  23 SE14G20   29.98S HX  82
RAPID CITY     PTSUNNY   69  45  41 N17G26    29.96F
AMARILLO       SUNNY     98  54  22 S10       29.76F HX  96
OKLA CITY      MOSUNNY   93  64  38 S17G29    29.69F HX  94
TULSA          MOSUNNY   96  67  38 S17G30    29.66S HX 100
LITTLE ROCK    MOSUNNY   93  72  50 S15G22    29.78S HX 101
SPRINGFIELD    MOSUNNY   91  67  44 SW14G23   29.71F HX  94
COLUMBIA       SUNNY     91  68  46 S16G26    29.66F HX  95


CITY           SKY/WX    TMP DP  RH WIND       PRES   REMARKS
ST LOUIS       PTSUNNY   92  66  42 S16       29.68F HX  94
DES MOINES     PTSUNNY   84  70  62 S15G22    29.55F THUNDER HX  88
BISMARK        PTSUNNY   71  46  40 N21G31    29.86R
BURLINGTON KS  FAIR      95  62  32 SW17G26   29.61S HX  96
FORT SCOTT     SUNNY     95  55  26 S18       29.61F HX  93
HEBRON         PTSUNNY   88  65  47 N13       29.67R HX  89
COFFEYVILLE    SUNNY     97  68  38 S22G32    29.63S HX 102


USA.gov is the U.S. government's official web portal to all federal, state and local government web resources and services.